2017-008DD

Last updated on Fri Mar 10 2017 00:15:03 GMT+0000 (Coordinated Universal Time)

1 42047U 17008DD 17068.69482636 .00001761 00000-0 80962-4 0 9993 2 42047 97.5114 130.2944 0009062 175.2428 184.8889 15.21677604 2563
UTC large
Height (km)
Speed (km/s)
/
Latitude / Longitude
Inclination (degrees)
Orbital Period (minutes)
Azimuth
Elevation
Range (km)
Doppler Factor

Next 0 passes for location: London (51.5072 / 0.1276)

Sorry there are no passes over London.